STARLINK-35008 (65408 NORAD) Tracking and Keplerian Element Data

This shows tracking and keplerian element data for the satellite.

Feedback or suggestion? Click here.




ElementValue
Catalog65408
NameSTARLINK-35008
Epoch Orbit1711
Epoch Day354.01314624
Epoch Year2025
RAAN247.545
Inclination53.158
Eccentricity0.0001367
Argument of Perigee87.6704
Mean Anonmoly272.4458
Mean Motion15.39613762
Decay Rate0.00018326
L11 65408U 25192E 25354.01314624 .00018326 00000+0 46711-3 0 9993
L22 65408 53.1580 247.5450 0001367 87.6704 272.4458 15.39613762 17118



Live tracking and technical data element details for STARLINK-35008 (NORAD 65408). STARLINK-35008 can be tracked NOW for your location showing map with azimuth and elevation plus other details from your city location.







IsCatalogInMostPopularTable: catalog: 65408, numindb: 9
Update: records affected: 1



GetName: 65408 STARLINK-35008

Hit Count: updated at: Mon, 20 Apr 2026 09:37:10 GMT